Terminal Aerodrome Forecast
Issued by NWS

Home | Current Version | Previous Version | Text Only | Print | Product List | Glossary On
Versions: 1 2 3 4 5 6 7 8 9 10 11 12 13 14 15 16 17 18 19 20
000
FTUS43 KILX 271300 AAA
TAFDEC
TAF AMD
KDEC 271349Z 2714/2812 30012KT P6SM VCSH OVC025
     FM272100 30010KT P6SM SCT025
     FM280100 VRB05KT P6SM BKN080=

USA.gov is the U.S. government's official web portal to all federal, state and local government web resources and services.